Weather in Sharan

Russia / Republic of Bashkortostan     54°49′12″N   54°00′20″E
temp.,
°C
wind,
m/s
gust,
m/s
humid.,
%
clouds,
%
prec.,
mm/h
press.,
hPa
HPBL,
m
28 february, sun
sun2823:00−5se5896100 2.7 999261
02:00−4se3597100 0.8 998132
05:00−5ene2497100 1.6 99894
08:00−7nne469699 0.7 999164
11:00−9n469496 1.2 1000262
14:00−9n5793100 0.1 1002354
17:00−9nnw5893100 0.2 1004431
20:00−11nnw499597 0.1 1006276
1 march, mon
mon123:00−13nnw489695 0.3 1009227
02:00−15nw3597100 0.1 1011135
05:00−16nw469694 0.2 1013186
08:00−17nw369787 0.1 1015150
11:00−17nw359689 0.3 1017245
14:00−16nw3495100 0.1 1018302
17:00−16wnw4595100 0.1 1019336
20:00−20wnw2210099 0.0 102020
2 march, tue
tue223:00−22wsw2210086 0.1 102020
02:00−22sw2310091 0.0 101921
05:00−23ssw339970 0.0 101838
08:00−21ssw489665 0.0 1015187
11:00−17ssw6119582 0.0 1013322
14:00−13ssw81393100 0.0 1010417
17:00−11ssw81394100 0.9 1007605
20:00−10ssw71494100 1.0 1005601
3 march, wed
wed323:00−8ssw71494100 1.9 1004548
02:00−6ssw61295100 1.4 1001535
05:00−5ssw51195100 2.4 999475
08:00−5ssw5996100 0.8 998340
11:00−4sw479698 1.4 998322
14:00−4wnw579398 0.3 999485
17:00−5wnw699499 0.6 1000654
20:00−6nw61195100 0.6 1001638
4 march, thu
thu423:00−6nw51095100 0.8 1003436
02:00−7nw5119599 0.2 1004411
05:00−12nw51097100 0.3 1006248
08:00−13wnw41098100 0.1 1008223
11:00−11nw5995100 0.1 1010378
14:00−9wnw5894100 0.1 1011430
17:00−8w4892100 0.1 1012490
20:00−13wsw349691 0.0 101372